METEOR 2-5 DEB

Satellite information

Favourite Embed

Satellite Type and Status

DEBRISIN ORBIT

Key statistics

Satellite METEOR 2-5 DEB at a glance.

Uptime

16846

Days in orbit

Revolutions

≈ 14.4

Per day

Orbit

LEO

Low Earth Orbit

Inclination

81.2

Latest

Satellite identification and parameters

Extended collection of information and parameters for METEOR 2-5 DEB.

Object identification

Identified? True

Debris? True

Object name: METEOR 2-5 DEB

International designator: 1979-095BT

Object number (NORAD): 38273

Object ID (CCSDS): 38273

Country: COMMONWEALTH OF INDEPENDENT STATES (CIS)

Current information (Y/N): Y

RCS size: SMALL

Orbital parameters

Period: 99.926 minutes

Inclination: 81.2184 deg

SMA: 7133.104 km

Apoapsis: 761.777 km

Periapsis: 748.162 km

RAAN: 310.7417 deg

Eccentricy: 0.00095436

Argument of periapsis: 9.5129 deg

Mean anomaly: 350.6237 deg

Mean motion: 14.4106939 rev/day

Mean motion (dot): 0.00008249 rev/day2

B* drag term: 0.0025567918 1/REarth

Two-line elements (TLE)

Creation date: Dec. 14, 2025, 3:07 a.m.

Reference frame: TEME

Reference center: EARTH

Epoch: Dec. 13, 2025, 2:44 p.m. UTC

TLE line 0: 0 METEOR 2-5 DEB

TLE line 1: 1 38273U 79095BT 25347.61433225 .00008249 00000-0 25568-2 0 9991

TLE line 2: 2 38273 81.2184 310.7417 0009544 9.5129 350.6237 14.41069390649204

Live tracking on map

Real-time ground track for satellite METEOR 2-5 DEB.

In-orbit conjunctions

A list of the most updated potential collisions computed for object METEOR 2-5 DEB.

Target Orbit TCA Probability of collision Miss distance Type
FENGYUN 1C DEB SSO 2025-08-14 08:55:55 0.001137375 33.0 (m) DEBRIS
DMSP 5D-2 F13 DEB SSO 2025-02-16 00:46:00 0.0001023848 111.0 (m) DEBRIS

Associated space launch

Second generation soviet meteorological satellite

METEOR 2-5 DEB was lifted into orbit during the mission ‘Vostok 8A92M | Meteor-2 5’, on board a Vostok 8A92M space rocket.

The launch took place on Oct. 31, 1979, 9:25 a.m. from 43/4 (43R).

For more information about the launch, click the button.

Launch to space Vostok 8A92M | Meteor-2 5
Vostok 8A92M | Meteor-2 5

Agency: N/A

Status: Launch Successful

Launch date: Oct. 31, 1979, 9:25 a.m. UTC

Rocket: Vostok 8A92M

Launch pad: 43/4 (43R)

Location: Plesetsk Cosmodrome, Russian Federation

...

Latest news about this satellite

There are no fresh news available about this satellite. Check back as we update our databases every day.


Newsletter sign-up

Weekly statistics, charts and insights to help you stay on top of the space industry.